[[{"header":{"parameterUnit":"m.s-1","parameterCategory":1,"la1":30.2991,"la2":30.254,"lo1":-89.0895,"lo2":-89.0444,"dy":0.0017,"dx":0.0017,"nx":28,"ny":28,"refTime":"2026-02-13T09:00:00:Z","depth":0,"parameterNumber":2,"parameterNumberName":"U-component_of_WINDS"},"data":[0,0,0,0,0,0,0,0,0,0,0,0,0,0,0,0,0,0,0,0,0,0,0,0,0,0,0,0,0,0,0,0,0,0,0,0,0,0,0,0,0,0,0,0,0,0,0,0,0,0,0,0,0,0,0,0,0,0,0.4,0.4,0,0.4074,0.4075,0.4076,0.4104,0.4104,0.4103,0.4103,0.418,0.4182,0.4184,0,0,0,0,0,0,0,0,0,0,0,0,0,0.388,0.3882,0.4,0.4001,0.4001,0.4074,0.4075,0.4076,0.4104,0.4104,0.4103,0.4103,0.4179,0.4181,0.4184,0,0,0,0,0,0,0,0,0,0,0,0,0,0.3941,0.3883,0.3999,0.4024,0.4027,0.4074,0.4075,0.4077,0.4104,0.4104,0.4103,0.4103,0.4178,0.4181,0.4185,0.4212,0,0,0.4195,0.4196,0,0,0,0,0,0,0,0,0.3937,0.3945,0.402,0.4022,0.4026,0.408,0.4061,0.4122,0.4104,0.4075,0.4103,0.4103,0.4147,0.4152,0.4167,0.4216,0.4219,0.4195,0.4197,0.4199,0.42,0,0,0,0,0,0,0,0.3933,0.3942,0.4029,0.4021,0.4024,0.4031,0.4039,0.4073,0.4112,0.4077,0.408,0.4088,0.4148,0.4164,0.4169,0.422,0.4195,0.4198,0.42,0.4201,0.4295,0.4296,0,0,0,0,0,0,0.3925,0.3939,0.4027,0.4031,0.398,0.4034,0.4043,0.4063,0.4111,0.4119,0.4088,0.4089,0.4158,0.4165,0.4172,0.4208,0.4199,0.4202,0.4204,0.4295,0.4296,0.4296,0,0,0,0,0,0,0.3922,0.3933,0.4024,0.3986,0.3998,0.4036,0.4058,0.4064,0.408,0.412,0.4127,0.4097,0.4158,0.4167,0.4202,0.4211,0.4203,0.4206,0.4294,0.4295,0.4296,0.4279,0,0,0,0,0,0,0.3919,0.3931,0.3943,0.3986,0.4,0.4053,0.4059,0.4066,0.4086,0.4088,0.413,0.4137,0.4159,0.4197,0.4205,0.4215,0.4209,0.4294,0.4295,0.4296,0.4279,0.4279,0.428,0,0,0,0,0,0.3914,0.3935,0.3943,0.3954,0.4015,0.4053,0.4061,0.4086,0.4086,0.4098,0.4123,0.4135,0.4208,0.42,0.421,0.4221,0.4293,0.4294,0.4295,0.4279,0.4279,0.428,0,0,0,0,0,0,0.3892,0.3941,0.3951,0.3986,0.4015,0.4058,0.4073,0.4086,0.4115,0.4116,0.4146,0.4155,0.4187,0.4208,0.4198,0.425,0.4252,0.4255,0.4236,0.4236,0.4236,0.4231,0.4212,0,0,0,0,0,0.3891,0.3919,0.396,0.3987,0.4002,0.4035,0.4052,0.4069,0.4101,0.4113,0.4141,0.4171,0.4201,0.422,0.4249,0.4282,0.4292,0.4295,0.4295,0.4295,0.4297,0.4316,0.4317,0.4299,0.4299,0.4299,0,0,0.389,0.392,0.3936,0.3984,0.4008,0.4036,0.4045,0.4074,0.4094,0.4118,0.4152,0.4174,0.4209,0.4243,0.4259,0.4261,0.4304,0.4296,0.4296,0.4298,0.4317,0.4318,0.432,0.43,0.43,0.43,0,0,0.3901,0.3927,0.3953,0.3977,0.4014,0.4036,0.4042,0.4083,0.4098,0.4133,0.4151,0.4176,0.4226,0.4251,0.427,0.429,0.4302,0.4298,0.4299,0.4317,0.4318,0.4319,0.4326,0.4329,0.4301,0.43,0.43,0,0.3895,0.3938,0.3964,0.3992,0.4012,0.4034,0.406,0.4082,0.4127,0.414,0.4142,0.4205,0.4231,0.427,0.4275,0.429,0.4297,0.4294,0.4316,0.4317,0.4319,0.4326,0.4329,0.43,0.43,0.43,0.43,0,0.3928,0.3957,0.3973,0.4015,0.4038,0.4064,0.4094,0.4113,0.4128,0.4149,0.4185,0.4216,0.4252,0.4262,0.4277,0.4304,0.4304,0.431,0.4312,0.432,0.4327,0.433,0.4299,0.4299,0.4299,0.4299,0,0,0.3927,0.3984,0.399,0.4009,0.4052,0.4074,0.4102,0.4137,0.4153,0.4183,0.4206,0.4248,0.4254,0.4275,0.4293,0.4308,0.4322,0.4313,0.4314,0.4313,0.4353,0.4348,0.4351,0.433,0.4331,0.4331,0.435,0,0.3945,0.3995,0.4019,0.4058,0.4086,0.4107,0.413,0.4159,0.4179,0.4205,0.4228,0.4257,0.4263,0.4276,0.4292,0.4317,0.433,0.4316,0.4352,0.4353,0.4342,0.4355,0.435,0.4366,0.4353,0.4354,0.4354,0,0.3971,0.4001,0.4043,0.4082,0.4095,0.4115,0.415,0.4174,0.4206,0.422,0.4244,0.4261,0.429,0.4289,0.433,0.4319,0.4335,0.4349,0.4351,0.4355,0.4354,0.4359,0.4372,0.4375,0.4359,0.4358,0.4358,0,0.3967,0.4018,0.4049,0.4065,0.4112,0.4126,0.4146,0.4178,0.4197,0.4227,0.424,0.4272,0.429,0.4314,0.4339,0.4337,0.4377,0.4379,0.4389,0.4389,0.4397,0.4396,0.4412,0.4407,0.4407,0.4407,0.4407,0,0.3983,0.4008,0.4048,0.4067,0.4096,0.4123,0.415,0.4172,0.42,0.4223,0.4244,0.4265,0.4297,0.4323,0.4342,0.4372,0.438,0.4392,0.4397,0.439,0.4389,0.4401,0.4401,0.4408,0.4408,0.4408,0.4407,0,0.3983,0.4011,0.4047,0.4087,0.4098,0.4117,0.4152,0.4171,0.4193,0.4223,0.4231,0.4265,0.4296,0.4323,0.4364,0.4377,0.4408,0.4414,0.4397,0.44,0.4409,0.4408,0.4434,0.4439,0.443,0.443,0.443,0,0.3992,0.4012,0.4054,0.4072,0.4091,0.4119,0.4139,0.4167,0.4186,0.4224,0.4239,0.4272,0.4299,0.4348,0.4376,0.4407,0.4414,0.4421,0.4419,0.4412,0.4414,0.4413,0.4415,0.4421,0.4421,0.4421,0.4421,0,0.4005,0.4017,0.4045,0.4078,0.4101,0.4129,0.4156,0.4169,0.4202,0.4223,0.4255,0.4276,0.4318,0.435,0.4384,0.4405,0.4418,0.4421,0.4426,0.4419,0.4408,0.4414,0.4397,0.4421,0.4421,0.4421,0.4421,0.4421,0.4009,0.4027,0.406,0.4091,0.4115,0.414,0.416,0.4184,0.4211,0.4248,0.4262,0.4295,0.4326,0.4374,0.4394,0.4419,0.4422,0.4427,0.4429,0.443,0.4429,0.4404,0.4426,0.4426,0.4426,0.4426,0.4426,0,0.4023,0.4045,0.4073,0.4111,0.4135,0.4145,0.4176,0.4196,0.4224,0.4252,0.4279,0.4315,0.4346,0.4376,0.4409,0.4423,0.443,0.4431,0.443,0.4435,0.4425,0.4418,0.4425,0.4425,0.4425,0.4425,0.4425,0.4425,0.4032,0.4064,0.408,0.4124,0.4145,0.4178,0.4194,0.4218,0.424,0.428,0.4306,0.4326,0.4354,0.4389,0.4418,0.4426,0.4437,0.4435,0.4445,0.4435,0.4435,0.4435,0.4429,0.4438,0.4438,0.4453,0.4453,0.4453]},{"header":{"parameterUnit":"m.s-1","parameterCategory":1,"la1":30.2991,"la2":30.254,"lo1":-89.0895,"lo2":-89.0444,"dy":0.0017,"dx":0.0017,"nx":28,"ny":28,"refTime":"2026-02-13T09:00:00:Z","depth":0,"parameterNumber":3,"parameterNumberName":"V-component_of_WINDS"},"data":[0,0,0,0,0,0,0,0,0,0,0,0,0,0,0,0,0,0,0,0,0,0,0,0,0,0,0,0,0,0,0,0,0,0,0,0,0,0,0,0,0,0,0,0,0,0,0,0,0,0,0,0,0,0,0,0,0,0,0.7912,0.7911,0,0.78,0.7798,0.7797,0.7753,0.7753,0.7753,0.7753,0.7636,0.7632,0.7629,0,0,0,0,0,0,0,0,0,0,0,0,0,0.8088,0.8085,0.7912,0.7911,0.791,0.78,0.7798,0.7797,0.7752,0.7753,0.7753,0.7754,0.7637,0.7633,0.7629,0,0,0,0,0,0,0,0,0,0,0,0,0,0.7997,0.8084,0.7913,0.7874,0.787,0.78,0.7798,0.7796,0.7752,0.7753,0.7753,0.7754,0.7638,0.7633,0.7628,0.7587,0,0,0.7612,0.761,0,0,0,0,0,0,0,0,0.8002,0.799,0.7881,0.7877,0.7872,0.7791,0.7817,0.7726,0.7752,0.7797,0.7753,0.7754,0.7687,0.7678,0.7655,0.7582,0.7577,0.7612,0.7609,0.7607,0.7605,0,0,0,0,0,0,0,0.8008,0.7995,0.7868,0.788,0.7874,0.7862,0.785,0.7799,0.7741,0.7793,0.779,0.7777,0.7684,0.766,0.7652,0.7575,0.7612,0.7608,0.7604,0.7602,0.7462,0.7462,0,0,0,0,0,0,0.8021,0.8001,0.7871,0.7864,0.7939,0.7859,0.7845,0.7816,0.7741,0.773,0.7777,0.7775,0.7669,0.7658,0.7648,0.7595,0.7607,0.7602,0.7599,0.7463,0.7462,0.7462,0,0,0,0,0,0,0.8025,0.801,0.7876,0.7931,0.7913,0.7855,0.7823,0.7814,0.779,0.7729,0.7718,0.7763,0.7669,0.7655,0.7603,0.759,0.76,0.7595,0.7464,0.7463,0.7462,0.749,0,0,0,0,0,0,0.803,0.8012,0.7996,0.7931,0.7911,0.7833,0.7823,0.7811,0.7781,0.7779,0.7713,0.7703,0.7668,0.7611,0.7598,0.7584,0.7591,0.7465,0.7463,0.7462,0.749,0.749,0.749,0,0,0,0,0,0.8037,0.8008,0.7996,0.798,0.789,0.7833,0.7821,0.7782,0.7781,0.7764,0.7725,0.7705,0.7594,0.7606,0.7591,0.7575,0.7465,0.7464,0.7462,0.7489,0.749,0.749,0,0,0,0,0,0,0.8072,0.7999,0.7984,0.7934,0.789,0.7825,0.7803,0.7783,0.7738,0.7737,0.7691,0.7676,0.7628,0.7596,0.761,0.7532,0.7528,0.7524,0.7554,0.7554,0.7554,0.7562,0.7587,0,0,0,0,0,0.8074,0.8034,0.7972,0.7933,0.7912,0.7862,0.7835,0.7809,0.7762,0.7743,0.7699,0.7653,0.7608,0.7579,0.7534,0.7485,0.747,0.7467,0.7467,0.7467,0.7464,0.7435,0.7433,0.7457,0.7457,0.7457,0,0,0.8077,0.8032,0.801,0.7939,0.7902,0.7862,0.7846,0.7804,0.7773,0.7736,0.7684,0.7651,0.7596,0.7546,0.7521,0.7518,0.7454,0.7465,0.7466,0.7462,0.7434,0.7431,0.7429,0.7456,0.7456,0.7456,0,0,0.8062,0.8025,0.7988,0.7952,0.7896,0.7863,0.7855,0.7793,0.777,0.7717,0.7689,0.7651,0.7574,0.7537,0.7507,0.7479,0.7459,0.7466,0.7466,0.7439,0.7437,0.7436,0.7425,0.7422,0.7463,0.7463,0.7463,0,0.8073,0.8011,0.7972,0.7931,0.7901,0.7867,0.7829,0.7795,0.7728,0.7707,0.7705,0.7608,0.7569,0.7509,0.7502,0.748,0.7468,0.7473,0.7441,0.7439,0.7436,0.7426,0.7422,0.7464,0.7464,0.7464,0.7464,0,0.8027,0.7985,0.7962,0.7899,0.7866,0.7827,0.7781,0.7753,0.773,0.7697,0.7644,0.7596,0.7541,0.7524,0.7501,0.7461,0.7461,0.745,0.7446,0.7436,0.7425,0.7421,0.7466,0.7465,0.7465,0.7465,0,0,0.803,0.7946,0.7939,0.791,0.7846,0.7812,0.7772,0.7719,0.7695,0.765,0.7614,0.755,0.7541,0.7508,0.748,0.7456,0.7437,0.7449,0.7447,0.7448,0.7389,0.7397,0.7393,0.7424,0.7423,0.7422,0.7394,0,0.8007,0.7933,0.7897,0.7839,0.78,0.7767,0.7732,0.7689,0.7657,0.7618,0.7583,0.7538,0.7529,0.7508,0.7484,0.7445,0.7424,0.7446,0.7389,0.7388,0.7404,0.7388,0.7396,0.7371,0.7389,0.7389,0.7388,0,0.7969,0.7925,0.7864,0.7805,0.7787,0.7756,0.7705,0.7668,0.7619,0.7597,0.7561,0.7535,0.749,0.749,0.7428,0.7444,0.7418,0.7396,0.7394,0.7386,0.7387,0.7379,0.7362,0.7359,0.7381,0.7382,0.7382,0,0.7977,0.7902,0.7856,0.7832,0.7763,0.7742,0.7712,0.7663,0.7634,0.7589,0.7569,0.7519,0.7492,0.7454,0.7414,0.7417,0.7356,0.7352,0.7336,0.7337,0.7324,0.7325,0.7302,0.7309,0.7309,0.7309,0.7309,0,0.7954,0.7917,0.7859,0.783,0.7788,0.7747,0.7707,0.7674,0.7631,0.7595,0.7564,0.7531,0.7481,0.7442,0.741,0.7364,0.7352,0.7333,0.7325,0.7335,0.7337,0.7317,0.7318,0.7308,0.7308,0.7308,0.7309,0,0.7955,0.7914,0.7862,0.7801,0.7785,0.7757,0.7705,0.7676,0.7643,0.7598,0.7585,0.7533,0.7485,0.7442,0.7378,0.7357,0.7309,0.73,0.7326,0.7322,0.7308,0.731,0.7271,0.7264,0.7276,0.7276,0.7276,0,0.7943,0.7914,0.7851,0.7825,0.7796,0.7755,0.7725,0.7683,0.7653,0.7596,0.7573,0.7523,0.7481,0.7406,0.7362,0.7313,0.7301,0.7291,0.7294,0.7305,0.7301,0.7303,0.7299,0.7291,0.7291,0.7291,0.7291,0,0.7925,0.7907,0.7865,0.7817,0.7782,0.7742,0.77,0.7681,0.7631,0.7599,0.755,0.7518,0.7453,0.7404,0.735,0.7318,0.7296,0.7291,0.7285,0.7295,0.7311,0.7302,0.7327,0.7292,0.7292,0.7292,0.7292,0.7292,0.7919,0.7892,0.7844,0.7798,0.7763,0.7725,0.7695,0.7659,0.7618,0.7562,0.754,0.7491,0.7442,0.7368,0.7337,0.7297,0.7292,0.7283,0.7281,0.7279,0.7281,0.7319,0.7287,0.7287,0.7286,0.7286,0.7286,0,0.7899,0.7867,0.7826,0.7769,0.7734,0.7718,0.7671,0.7642,0.7599,0.7556,0.7516,0.7459,0.7412,0.7364,0.7314,0.7291,0.728,0.7279,0.728,0.7273,0.7288,0.7298,0.7289,0.7289,0.7289,0.7289,0.7289,0.7289,0.7885,0.7839,0.7814,0.775,0.7718,0.767,0.7644,0.7609,0.7575,0.7514,0.7474,0.7444,0.74,0.7346,0.7301,0.7288,0.7271,0.7273,0.7258,0.7272,0.7272,0.7272,0.7282,0.727,0.727,0.7246,0.7246,0.7246]}]]